Location: Newark
(47.4333°N, 19.2500°E)
Time: 23:34:23
(UTC+00:00)

ISS - Visible Passes

Search period start: 05 March 2021 00:00
Search period end: 15 March 2021 00:00
Orbit: 417 x 422 km, 51.6° (Epoch: 05 March)

Date Brightness Start Highest point End Pass type
(mag) Time Alt. Az. Time Alt. Az. Time Alt. Az.
05 Mar -0.8 02:24:06 17° ENE 02:24:06 17° ENE 02:25:03 10° ENE visible
05 Mar -3.0 03:57:03 20° NW 03:59:03 46° NNE 04:02:18 10° E visible
06 Mar -2.8 03:11:24 40° N 03:11:28 40° N 03:14:41 10° E visible
07 Mar -1.0 02:25:47 20° ENE 02:25:47 20° ENE 02:27:03 10° ENE visible
07 Mar -3.7 03:58:45 19° WNW 04:01:00 75° NNE 04:04:21 10° ESE visible
08 Mar -3.4 03:13:11 54° N 03:13:27 57° NNE 03:16:47 10° E visible
09 Mar -1.3 02:27:41 23° ENE 02:27:41 23° ENE 02:29:09 10° E visible
09 Mar -3.6 04:00:40 20° WNW 04:02:47 53° SSW 04:06:03 10° SE visible
10 Mar -3.9 03:15:16 79° SW 03:15:19 79° SSW 03:18:39 10° ESE visible
11 Mar -1.3 02:29:59 20° ESE 02:29:59 20° ESE 02:31:09 10° ESE visible
11 Mar -2.4 04:02:58 18° WSW 04:04:21 23° SW 04:07:04 10° SSE visible
12 Mar -2.6 03:17:51 29° S 03:17:51 29° S 03:20:04 10° SSE visible
